Regional Weather Roundup
Issued by NWS Upton, NY

Current Version | Previous Version | Text Only | Print | Product List | Glossary Off
Versions: 1 2 3 4 5 6 7 8 9 10 11 12 13 14 15 16 17 18 19 20 21 22 23 24 25 26 27 28 29 30 31 32 33 34 35 36 37 38 39 40 41 42 43 44 45 46 47 48 49 50
000 ASUS41 KOKX 231109 RWROKX REGIONAL WEATHER ROUNDUP NATIONAL WEATHER SERVICE NEW YORK NY 700 AM EDT SAT SEP 23 2017 NOTE: "FAIR" INDICATES FEW OR NO CLOUDS BELOW 12,000 FEET WITH NO SIGNIFICANT WEATHER AND/OR OBSTRUCTIONS TO VISIBILITY. NYZ071-072-176-178-NJZ106-104-231200- NEW YORK CITY METRO AREA CITY SKY/WX TMP DP RH WIND PRES REMARKS Central Park CLEAR 68 53 58 VRB6 30.03S Bronx Bot Gard N/A 68 54 60 NW6 30.02S LaGuardia APRT PTCLDY 70 56 61 N7 29.99R Kennedy INTL PTCLDY 70 56 61 N10 30.00R Breezy Point N/A 70 N/A N/A NW5 N/A Newark/Liberty PTCLDY 71 51 49 N12 30.00S Teterboro CLEAR 68 51 54 N6 30.00R $$ NYZ177-179-078>081-231200- LONG ISLAND NEW YORK CITY SKY/WX TMP DP RH WIND PRES REMARKS Jones Beach N/A 68 N/A N/A N10 N/A Matinecock PT N/A 70 N/A N/A NE6 N/A Farmingdale PTCLDY 68 57 68 N9 29.98S MacArthur/ISP PTCLDY 69 56 62 N12 29.97S Shirley CLEAR 70 58 65 N7 29.97S Mt Sinai Harb N/A N/A N/A N/A N14 N/A Westhampton CLEAR 67 57 70 N13 29.97R East Hampton FAIR 65 59 79 N9G21 29.94S Montauk N/A 66 62 87 N12G22 29.95R $$ NYZ052-065-067-231200- HUDSON VALLEY CITY SKY/WX TMP DP RH WIND PRES REMARKS White Plains CLEAR 65 54 67 NW10 30.00S Larchmont Harb N/A 68 N/A N/A N2 N/A Croton On Huds N/A 64 N/A N/A MISG N/A Newburgh CLEAR 59 54 82 CALM 30.05S Montgomery CLEAR 53 51 93 W5 30.04S Poughkeepsie CLEAR 56 52 86 CALM 30.02S Albany CLEAR 55 52 89 N3 30.07R $$ NJZ001-105-106-008-010-013-015-019>022-104-231200- NEW JERSEY CITY SKY/WX TMP DP RH WIND PRES REMARKS Newark/Liberty PTCLDY 71 51 49 N12 30.00S Teterboro CLEAR 68 51 54 N6 30.00R Caldwell CLEAR 65 54 67 CALM 30.03R Somerville NOT AVBL Linden FAIR 69 51 53 CALM 30.01S Perth Amboy N/A 68 N/A N/A W6 N/A Sussex CLEAR 55 54 96 CALM 30.05S Andover N/A 55 54 96 CALM 30.06R Trenton CLEAR 66 53 63 NW6 30.02R Millville CLEAR 67 57 70 N3 30.02R Atlantic City CLOUDY 68 56 65 N8 30.01R Wrightstown CLEAR 64 54 69 NW3 29.99S Toms River CLEAR 65 54 67 NW7 30.01R Belmar CLEAR 64 54 69 NW7 30.01R $$ PAZ047>061-062-071-231200- EASTERN PENNSYLVANIA CITY SKY/WX TMP DP RH WIND PRES REMARKS Philadelphia MOCLDY 67 52 58 N7 30.03S Allentown CLEAR 59 53 80 W3 30.05R Scranton PTCLDY 53 52 96 CALM 30.11R $$ CTZ002-004>006-009-010-012-RIZ004-006-007-MAZ004-011-015-231200- SOUTHERN NEW ENGLAND IN CT CITY SKY/WX TMP DP RH WIND PRES REMARKS Bradley INTL PTCLDY 62 51 67 N7 30.01R Hartford CLEAR 67 51 56 N6 30.00S Danbury CLEAR 62 56 80 SW6 30.02S Wtrbury/Oxford CLEAR 63 54 72 N12 30.02R Norwalk Harbor N/A 68 N/A N/A N7 N/A Bridgeport CLEAR 70 55 59 N13 29.98S Meriden CLEAR 67 50 54 N9 29.99S New Haven PTCLDY 69 51 52 N14 29.98R Chester FAIR 66 55 68 N10 29.97F Groton CLEAR 65 57 75 N15G26 29.93F Wilimantic PTCLDY 66 56 70 N6 29.99S IN RI CITY SKY/WX TMP DP RH WIND PRES REMARKS Providence CLOUDY 62 62 100 N14 29.98S Block Island CLOUDY 63 61 93 N17G26 29.93S Westerly MOCLDY 65 61 87 N10 29.95R IN MA CITY SKY/WX TMP DP RH WIND PRES REMARKS Boston CLOUDY 62 60 93 N10 30.00S Worcester CLOUDY 62 46 55 N10 30.03R Westfield CLEAR 62 52 69 NE5 30.02R Provincetown FOG 60 59 96 NE16G22 29.97R VSB 1/2 Nantucket LGT RAIN 62 62 100 N21 29.89R FOG $$ ANZ330-335-338-340-345-350-353-355-231200- COASTAL MARINE OBSERVATIONS STATION/POSITION TIME SKY/WX TEMP WIND PRES VSBY WAVE AIR SEA DIR/SP/G HT/PER (UTC) (F) (DEG/KT/KT) (MB) (MI) (FT/S) NY HARB ENTRANCE 0950 71 70 360/ 14/ 17 1014.2 4/ 7 20 S FIRE ISLAND 0950 69 66 360/ 16/ 17 1014.0 6/ 8 GREAT SOUTH BAY 1015 70 69 360/ 14/ 17 N/A 23 SSW MONTAUK P 0950 65 64 1012.7 6/ 7 15 E BARNEGAT LI 1030 69 N/A 6/ 8 HUDSON CANYON 0950 66 69 360/ 19/ 23 1012.2 7/ 8 KINGS POINT 1030 69 71 40/ 11/ 12 1016.2 EXECUTION ROCKS 1045 69 340/ 6/ 8 N/A WESTERN LI SOUND NOT AVBL CENTRAL LI SOUND 1015 69 10/ 16/ 21 N/A 2 EASTERN LI SOUND NOT AVBL ROBBINS REEF 1030 69 330/ 5/ 7 1016.5 $$ >>>>>>>>>>>>>>>>>>>>>>>>>>>> KEY <<<<<<<<<<<<<<<<<<<<<<<<<<< > < > SKY/WX - Sky Condition/Present Weather < > TMP - Temperature in Fahrenheit < > DP - Dew Point in Fahrenheit < > RH - Relative Humidity in Percent < > WIND - Direction (from) and Speed in MPH < > PRES - Mean Sea Level Pressure (inches of Hg) < > WCI - Wind Chill Index < > VSB - VISIBILITY IN MILES < > HX - HEAT INDEX < > TC - TEMPERATURE IN CELSIUS < > VRB - VARIABLE WIND DIRECTION < > < >>>>>>>>>>>>>>>>>>>>>>>>>>>> KEY <<<<<<<<<<<<<<<<<<<<<<<<<<<

USA.gov is the U.S. government's official web portal to all federal, state and local government web resources and services.